| time (UTC) | temp F | wind direction | speed knots | gust knots | rain 1hr in | rain 24hr in | rain mn in | humidity % | barometer mb |
| 20260504221114 | 78 | 137 | 0.0 | 0.0 | 0.00 | 0.23 | 0.23 | 59 | 1001.9 |
| 20260504220610 | 78 | 134 | 0.0 | 0.9 | 0.00 | 0.23 | 0.23 | 56 | 1001.9 |
| 20260504220108 | 78 | 144 | 0.0 | 0.9 | 0.00 | 0.23 | 0.23 | 56 | 1002.1 |
| 20260504215603 | 79 | 171 | 0.9 | 0.9 | 0.00 | 0.23 | 0.23 | 54 | 1002.1 |
| 20260504215101 | 79 | 149 | 0.0 | 0.0 | 0.00 | 0.23 | 0.23 | 53 | 1002.2 |
| 20260504214557 | 79 | 142 | 1.7 | 1.7 | 0.00 | 0.23 | 0.23 | 52 | 1002.0 |
| 20260504214053 | 79 | 123 | 0.9 | 0.9 | 0.00 | 0.23 | 0.23 | 53 | 1002.1 |
| 20260504213550 | 79 | 39 | 3.5 | 3.5 | 0.00 | 0.23 | 0.23 | 54 | 1002.2 |
| 20260504213047 | 78 | 159 | 0.0 | 0.0 | 0.00 | 0.23 | 0.23 | 54 | 1002.0 |
| 20260504212543 | 78 | 135 | 0.0 | 0.9 | 0.00 | 0.23 | 0.23 | 59 | 1002.1 |
| 20260504212040 | 77 | 155 | 0.0 | 0.0 | 0.00 | 0.23 | 0.23 | 60 | 1002.3 |
| 20260504211537 | 77 | 139 | 0.0 | 0.9 | 0.00 | 0.23 | 0.23 | 59 | 1002.0 |
| 20260504211034 | 76 | 149 | 0.9 | 1.7 | 0.00 | 0.23 | 0.23 | 60 | 1002.2 |
| 20260504210531 | 76 | 107 | 2.6 | 2.6 | 0.00 | 0.23 | 0.23 | 60 | 1002.4 |
| 20260504210028 | 76 | 134 | 0.0 | 0.9 | 0.00 | 0.23 | 0.23 | 64 | 1002.5 |
| 20260504205526 | 76 | 142 | 0.0 | 0.0 | 0.00 | 0.23 | 0.23 | 67 | 1002.6 |
| 20260504205023 | 75 | 164 | 0.0 | 0.9 | 0.00 | 0.23 | 0.23 | 64 | 1002.6 |
| 20260504204521 | 75 | 163 | 0.9 | 0.9 | 0.00 | 0.23 | 0.23 | 66 | 1002.9 |
| 20260504204020 | 75 | 220 | 0.9 | 2.6 | 0.00 | 0.23 | 0.23 | 72 | 1002.9 |
| 20260504203518 | 74 | 153 | 0.0 | 0.0 | 0.00 | 0.23 | 0.23 | 69 | 1002.9 |
| 20260504203015 | 73 | 98 | 0.0 | 0.0 | 0.00 | 0.23 | 0.23 | 72 | 1002.9 |
| 20260504202510 | 73 | 96 | 0.9 | 0.9 | 0.00 | 0.23 | 0.23 | 72 | 1002.9 |
| 20260504202007 | 72 | 152 | 0.0 | 0.0 | 0.00 | 0.23 | 0.23 | 78 | 1002.8 |
| 20260504201504 | 71 | 165 | 0.0 | 0.0 | 0.00 | 0.23 | 0.23 | 80 | 1002.9 |
| 20260504201002 | 69 | 171 | 1.7 | 1.7 | 0.00 | 0.23 | 0.23 | 83 | 1003.1 |
| 20260504200458 | 68 | 129 | 0.9 | 0.9 | 0.00 | 0.23 | 0.23 | 88 | 1002.9 |
| 20260504195955 | 67 | 170 | 0.0 | 0.0 | 0.00 | 0.23 | 0.23 | 90 | 1003.2 |
| 20260504195451 | 66 | 172 | 0.0 | 0.9 | 0.00 | 0.23 | 0.23 | 89 | 1002.9 |
| 20260504194948 | 66 | 177 | 0.9 | 0.9 | 0.00 | 0.23 | 0.23 | 89 | 1002.9 |
| 20260504194444 | 66 | 170 | 0.0 | 0.9 | 0.00 | 0.23 | 0.23 | 91 | 1003.1 |
| 20260504193940 | 66 | 172 | 0.0 | 0.0 | 0.00 | 0.23 | 0.23 | 91 | 1003.3 |
| 20260504193437 | 66 | 166 | 0.0 | 0.0 | 0.00 | 0.23 | 0.23 | 93 | 1003.5 |
| 20260504192936 | 65 | 166 | 0.0 | 0.0 | 0.00 | 0.23 | 0.23 | 93 | 1003.7 |
| 20260504192433 | 64 | 159 | 0.0 | 0.0 | 0.00 | 0.23 | 0.23 | 93 | 1003.6 |
| 20260504191932 | 62 | 175 | 0.9 | 1.7 | 0.00 | 0.23 | 0.23 | 93 | 1003.6 |
| 20260504191429 | 62 | 126 | 0.9 | 1.7 | 0.00 | 0.23 | 0.23 | 93 | 1003.2 |
| 20260504190924 | 62 | 130 | 0.0 | 0.0 | 0.00 | 0.23 | 0.23 | 92 | 1003.8 |
| 20260504190420 | 62 | 124 | 0.9 | 0.9 | 0.05 | 0.23 | 0.23 | 92 | 1004.4 |
| 20260504185917 | 62 | 153 | 0.0 | 0.0 | 0.05 | 0.23 | 0.23 | 91 | 1004.6 |
| 20260504185414 | 63 | 147 | 0.0 | 0.0 | 0.14 | 0.22 | 0.22 | 89 | 1004.8 |
| 20260504184910 | 63 | 165 | 0.9 | 1.7 | 0.26 | 0.22 | 0.22 | 87 | 1004.7 |
| 20260504184406 | 63 | 148 | 0.0 | 0.0 | 0.52 | 0.20 | 0.20 | 84 | 1004.6 |
| 20260504183902 | 63 | 104 | 1.7 | 2.6 | 1.13 | 0.19 | 0.19 | 82 | 1004.1 |
| 20260504183400 | 65 | 67 | 3.5 | 5.2 | 0.78 | 0.13 | 0.13 | 80 | 1004.3 |
| 20260504182857 | 66 | 139 | 0.0 | 0.0 | 0.00 | 0.00 | 0.00 | 75 | 1004.8 |
| 20260504182354 | 67 | 144 | 0.9 | 0.9 | 0.00 | 0.00 | 0.00 | 71 | 1004.8 |
| 20260504181851 | 68 | 137 | 0.0 | 0.0 | 0.00 | 0.00 | 0.00 | 69 | 1005.1 |
| 20260504181348 | 68 | 160 | 0.0 | 0.0 | 0.00 | 0.00 | 0.00 | 66 | 1005.4 |
| 20260504180847 | 68 | 167 | 0.0 | 0.0 | 0.00 | 0.00 | 0.00 | 64 | 1005.1 |
| 20260504180345 | 68 | 170 | 0.9 | 0.9 | 0.00 | 0.00 | 0.00 | 65 | 1004.8 |
| 20260504175843 | 68 | 162 | 0.0 | 0.9 | 0.00 | 0.00 | 0.00 | 67 | 1004.5 |
| 20260504175339 | 67 | 140 | 0.0 | 0.0 | 0.00 | 0.00 | 0.00 | 71 | 1004.3 |
| 20260504174838 | 66 | 140 | 0.0 | 0.0 | 0.00 | 0.00 | 0.00 | 72 | 1004.5 |
| 20260504174335 | 66 | 146 | 0.0 | 0.0 | 0.00 | 0.00 | 0.00 | 73 | 1004.9 |
| 20260504173832 | 67 | 146 | 0.0 | 0.0 | 0.00 | 0.00 | 0.00 | 71 | 1004.9 |
| 20260504173328 | 67 | 149 | 0.0 | 0.0 | 0.00 | 0.00 | 0.00 | 69 | 1005.0 |
| 20260504172826 | 67 | 166 | 0.0 | 0.0 | 0.00 | 0.00 | 0.00 | 65 | 1005.1 |
| 20260504172322 | 67 | 178 | 0.9 | 0.9 | 0.00 | 0.00 | 0.00 | 64 | 1005.1 |
| 20260504171818 | 67 | 163 | 0.0 | 0.0 | 0.00 | 0.00 | 0.00 | 64 | 1005.0 |
| 20260504171315 | 67 | 150 | 0.0 | 0.0 | 0.00 | 0.00 | 0.00 | 64 | 1004.8 |
| 20260504170812 | 67 | 147 | 0.0 | 0.0 | 0.00 | 0.00 | 0.00 | 65 | 1004.8 |
| 20260504170309 | 66 | 149 | 0.0 | 0.0 | 0.00 | 0.00 | 0.00 | 64 | 1005.0 |
| 20260504160227 | 67 | 143 | 0.0 | 0.9 | 0.00 | 0.00 | 0.00 | 60 | 1006.6 |
| 20260504150653 | 72 | 158 | 0.0 | 0.0 | 0.00 | 0.00 | 0.00 | 53 | 1007.2 |
| 20260504150150 | 72 | 158 | 0.0 | 0.0 | 0.00 | 0.00 | 0.00 | 50 | 1007.2 |
| 20260504141119 | 74 | 112 | 1.7 | 1.7 | 0.00 | 0.00 | 0.00 | 50 | 1006.8 |
| 20260504140615 | 72 | 130 | 0.9 | 1.7 | 0.00 | 0.00 | 0.00 | 53 | 1007.0 |
| 20260504140111 | 73 | 135 | 0.9 | 1.7 | 0.00 | 0.00 | 0.00 | 54 | 1006.9 |
| 20260504130539 | 67 | 120 | 1.7 | 2.6 | 0.00 | 0.00 | 0.00 | 61 | 1007.7 |
| 20260504110427 | 53 | 162 | 0.0 | 0.0 | 0.00 | 0.00 | 0.00 | 88 | 1008.2 |
| 20260504100344 | 54 | 159 | 0.0 | 0.0 | 0.00 | 0.00 | 0.00 | 88 | 1007.7 |
| 20260504081737 | 56 | 150 | 0.0 | 0.0 | 0.00 | 0.00 | 0.00 | 80 | 1007.7 |
| 20260504081233 | 56 | 160 | 0.0 | 0.0 | 0.00 | 0.00 | 0.00 | 79 | 1007.5 |
| 20260504080730 | 56 | 160 | 0.0 | 0.0 | 0.00 | 0.00 | 0.00 | 79 | 1007.6 |
| 20260504080226 | 57 | 158 | 0.0 | 0.0 | 0.00 | 0.00 | 0.00 | 78 | 1007.4 |
| 20260504070153 | 60 | 167 | 0.9 | 0.9 | 0.00 | 0.00 | 0.00 | 69 | 1007.7 |
| 20260504060114 | 64 | 166 | 0.0 | 0.0 | 0.00 | 0.00 | 0.00 | 59 | 1007.7 |
| 20260504050542 | 66 | 141 | 0.9 | 1.7 | 0.00 | 0.00 | 0.00 | 56 | 1007.2 |
| 20260504045536 | 66 | 163 | 0.9 | 1.7 | 0.00 | 0.00 | 0.00 | 55 | 1007.4 |
| 20260504045032 | 66 | 162 | 0.0 | 0.9 | 0.00 | 0.00 | 0.00 | 55 | 1007.5 |
| 20260504044529 | 66 | 167 | 0.0 | 0.0 | 0.00 | 0.00 | 0.00 | 56 | 1007.6 |
| 20260504044026 | 66 | 161 | 0.9 | 0.9 | 0.00 | 0.00 | 0.00 | 55 | 1007.8 |
| 20260504043523 | 66 | 163 | 0.0 | 0.9 | 0.00 | 0.00 | 0.00 | 55 | 1008.1 |
| 20260504043021 | 66 | 154 | 0.0 | 0.0 | 0.00 | 0.00 | 0.00 | 55 | 1008.1 |
| 20260504042517 | 66 | 149 | 0.0 | 0.9 | 0.00 | 0.00 | 0.00 | 54 | 1008.2 |
| 20260504042014 | 67 | 163 | 0.0 | 0.0 | 0.00 | 0.00 | 0.00 | 53 | 1008.3 |
| 20260504041510 | 67 | 165 | 0.9 | 1.7 | 0.00 | 0.00 | 0.00 | 54 | 1008.4 |
| 20260504041006 | 67 | 154 | 0.0 | 0.9 | 0.00 | 0.00 | 0.00 | 52 | 1008.3 |
| 20260504040504 | 67 | 160 | 0.0 | 0.0 | 0.00 | 0.00 | 0.00 | 52 | 1008.5 |
| 20260504040000 | 68 | 192 | 1.7 | 1.7 | 0.00 | 0.00 | 0.00 | 52 | 1008.3 |
| 20260504035458 | 68 | 183 | 0.0 | 0.9 | 0.00 | 0.00 | 0.00 | 51 | 1008.4 |
| 20260504034954 | 69 | 161 | 0.0 | 0.0 | 0.00 | 0.00 | 0.00 | 50 | 1008.7 |
| 20260504034451 | 69 | 165 | 0.0 | 0.0 | 0.00 | 0.00 | 0.00 | 49 | 1008.9 |
| 20260504033948 | 69 | 152 | 0.0 | 0.0 | 0.00 | 0.00 | 0.00 | 49 | 1008.9 |
| 20260504033446 | 68 | 163 | 0.0 | 0.9 | 0.00 | 0.00 | 0.00 | 50 | 1009.1 |
| 20260504032943 | 68 | 146 | 0.9 | 0.9 | 0.00 | 0.00 | 0.00 | 50 | 1008.9 |
| 20260504032440 | 68 | 153 | 0.0 | 0.0 | 0.00 | 0.00 | 0.00 | 51 | 1008.9 |
| 20260504031937 | 68 | 153 | 0.0 | 0.9 | 0.00 | 0.00 | 0.00 | 51 | 1008.8 |
| 20260504031434 | 68 | 154 | 0.0 | 0.0 | 0.00 | 0.00 | 0.00 | 51 | 1008.8 |
| 20260504030930 | 68 | 153 | 0.0 | 0.0 | 0.00 | 0.00 | 0.00 | 50 | 1008.8 |
| 20260504030427 | 68 | 149 | 0.0 | 0.9 | 0.00 | 0.00 | 0.00 | 51 | 1008.9 |
| 20260504025923 | 68 | 183 | 0.0 | 0.9 | 0.00 | 0.00 | 0.00 | 50 | 1008.7 |
| 20260504025420 | 67 | 150 | 0.0 | 0.0 | 0.00 | 0.00 | 0.00 | 52 | 1008.9 |
| 20260504024917 | 67 | 171 | 0.9 | 1.7 | 0.00 | 0.00 | 0.00 | 51 | 1008.7 |
| 20260504024414 | 66 | 160 | 0.0 | 0.0 | 0.00 | 0.00 | 0.00 | 52 | 1008.7 |
| 20260504023911 | 66 | 163 | 0.0 | 0.0 | 0.00 | 0.00 | 0.00 | 55 | 1008.6 |
| 20260504023408 | 65 | 161 | 0.0 | 0.0 | 0.00 | 0.00 | 0.00 | 56 | 1008.7 |
| 20260504022903 | 64 | 151 | 0.0 | 0.0 | 0.00 | 0.00 | 0.00 | 57 | 1008.6 |
| 20260504022400 | 64 | 151 | 0.0 | 0.0 | 0.00 | 0.00 | 0.00 | 58 | 1008.7 |
| 20260504021856 | 64 | 151 | 0.0 | 0.0 | 0.00 | 0.00 | 0.00 | 58 | 1008.7 |
| 20260504021354 | 64 | 151 | 0.0 | 0.0 | 0.00 | 0.00 | 0.00 | 57 | 1008.5 |
| 20260504020851 | 64 | 151 | 0.0 | 0.0 | 0.00 | 0.00 | 0.00 | 57 | 1008.4 |
| 20260504020347 | 65 | 151 | 0.0 | 0.0 | 0.00 | 0.00 | 0.00 | 58 | 1008.5 |
| 20260504015843 | 65 | 151 | 0.0 | 0.0 | 0.00 | 0.00 | 0.00 | 56 | 1008.5 |
| 20260504015340 | 65 | 151 | 0.0 | 0.0 | 0.00 | 0.00 | 0.00 | 55 | 1008.3 |
| 20260504014836 | 66 | 151 | 0.0 | 0.0 | 0.00 | 0.00 | 0.00 | 55 | 1008.4 |
| 20260504014332 | 66 | 151 | 0.0 | 0.0 | 0.00 | 0.00 | 0.00 | 55 | 1008.3 |
| 20260504013830 | 66 | 151 | 0.0 | 0.0 | 0.00 | 0.00 | 0.00 | 54 | 1008.3 |
| 20260504013328 | 67 | 151 | 0.0 | 0.0 | 0.00 | 0.00 | 0.00 | 53 | 1008.2 |
| 20260504012824 | 67 | 152 | 0.0 | 0.0 | 0.00 | 0.00 | 0.00 | 52 | 1008.4 |
| 20260504012322 | 68 | 151 | 0.0 | 0.0 | 0.00 | 0.00 | 0.00 | 51 | 1008.4 |
| 20260504011819 | 69 | 152 | 0.0 | 0.0 | 0.00 | 0.00 | 0.00 | 51 | 1008.1 |
| 20260504011316 | 69 | 152 | 0.0 | 0.0 | 0.00 | 0.00 | 0.00 | 48 | 1008.1 |
| 20260504010811 | 70 | 152 | 0.0 | 0.0 | 0.00 | 0.00 | 0.00 | 47 | 1008.0 |
| 20260504010307 | 70 | 162 | 0.0 | 0.0 | 0.00 | 0.00 | 0.00 | 47 | 1008.3 |
| 20260504005804 | 71 | 162 | 0.0 | 0.0 | 0.00 | 0.00 | 0.00 | 46 | 1008.0 |
| 20260504005301 | 71 | 159 | 0.0 | 0.0 | 0.00 | 0.00 | 0.00 | 44 | 1008.2 |
| 20260504004759 | 72 | 158 | 0.0 | 0.0 | 0.00 | 0.00 | 0.00 | 44 | 1008.3 |
| 20260504004256 | 72 | 176 | 0.9 | 0.9 | 0.00 | 0.00 | 0.00 | 43 | 1008.1 |
| 20260504003752 | 73 | 156 | 0.0 | 0.0 | 0.00 | 0.00 | 0.00 | 43 | 1008.2 |
| 20260504003249 | 73 | 159 | 0.0 | 0.0 | 0.00 | 0.00 | 0.00 | 42 | 1008.2 |
| 20260504002746 | 73 | 158 | 0.0 | 0.0 | 0.00 | 0.00 | 0.00 | 40 | 1008.2 |
| 20260504002243 | 74 | 151 | 0.0 | 0.0 | 0.00 | 0.00 | 0.00 | 41 | 1008.2 |
| 20260504001741 | 74 | 164 | 0.0 | 0.9 | 0.00 | 0.00 | 0.00 | 39 | 1008.2 |
| 20260504001237 | 75 | 144 | 0.9 | 0.9 | 0.00 | 0.00 | 0.00 | 38 | 1008.3 |
| 20260504000734 | 75 | 153 | 0.0 | 0.0 | 0.00 | 0.00 | 0.00 | 38 | 1008.2 |
| 20260504000233 | 75 | 115 | 0.9 | 1.7 | 0.00 | 0.00 | 0.00 | 38 | 1008.3 |
| 20260503235729 | 76 | 145 | 0.0 | 0.0 | 0.00 | 0.00 | 0.00 | 37 | 1008.3 |
| 20260503235226 | 76 | 166 | 0.0 | 0.0 | 0.00 | 0.00 | 0.00 | 37 | 1008.1 |
| 20260503234724 | 76 | 115 | 1.7 | 1.7 | 0.00 | 0.00 | 0.00 | 37 | 1008.2 |
| 20260503234222 | 76 | 160 | 0.0 | 0.0 | 0.00 | 0.00 | 0.00 | 37 | 1008.4 |
| 20260503233719 | 76 | 138 | 0.0 | 0.9 | 0.00 | 0.00 | 0.00 | 36 | 1008.3 |
| 20260503233214 | 76 | 151 | 1.7 | 1.7 | 0.00 | 0.00 | 0.00 | 35 | 1008.2 |
| 20260503232711 | 76 | 172 | 0.0 | 0.9 | 0.00 | 0.00 | 0.00 | 35 | 1008.4 |
| 20260503232208 | 76 | 180 | 0.9 | 0.9 | 0.00 | 0.00 | 0.00 | 36 | 1008.5 |
| 20260503231707 | 77 | 209 | 3.5 | 3.5 | 0.00 | 0.00 | 0.00 | 36 | 1008.5 |
| 20260503231203 | 77 | 156 | 0.9 | 0.9 | 0.00 | 0.00 | 0.00 | 35 | 1008.2 |
| 20260503230659 | 77 | 163 | 0.0 | 0.0 | 0.00 | 0.00 | 0.00 | 34 | 1008.7 |
| 20260503230157 | 77 | 158 | 0.0 | 0.9 | 0.00 | 0.00 | 0.00 | 34 | 1008.7 |
| 20260503225654 | 77 | 164 | 0.0 | 0.9 | 0.00 | 0.00 | 0.00 | 34 | 1008.4 |
| 20260503225154 | 77 | 166 | 0.9 | 2.6 | 0.00 | 0.00 | 0.00 | 32 | 1008.6 |
| 20260503224651 | 78 | 178 | 1.7 | 2.6 | 0.00 | 0.00 | 0.00 | 33 | 1008.8 |
| 20260503224149 | 78 | 160 | 0.9 | 0.9 | 0.00 | 0.00 | 0.00 | 34 | 1008.6 |
| 20260503223647 | 78 | 157 | 0.0 | 0.0 | 0.00 | 0.00 | 0.00 | 32 | 1008.7 |
| 20260503223143 | 78 | 159 | 0.0 | 0.9 | 0.00 | 0.00 | 0.00 | 31 | 1008.8 |
| 20260503222640 | 78 | 166 | 0.9 | 0.9 | 0.00 | 0.00 | 0.00 | 31 | 1008.7 |
| 20260503222138 | 78 | 198 | 1.7 | 2.6 | 0.00 | 0.00 | 0.00 | 30 | 1008.7 |
| 20260503221637 | 78 | 197 | 0.9 | 1.7 | 0.00 | 0.00 | 0.00 | 30 | 1008.9 |